GW7011 Weather Reports


time (UTC)temp
C
wind
direction
speed
KPH
gust
KPH
rain 1hr
cm
rain 24hr
cm
rain mn
cm
humidity
%
barometer
mb
20260504215304 19 240 4.8 11.3 0.00 0.00 0.00 37 1005.1
20260504214759 19 293 4.8 9.7 0.00 0.00 0.00 38 1005.2
20260504214256 19 242 8.0 16.1 0.00 0.00 0.00 37 1005.3
20260504213753 19 232 6.4 9.7 0.00 0.00 0.00 37 1004.9
20260504213249 19 246 4.8 9.7 0.00 0.00 0.00 38 1004.9
20260504212746 20 202 6.4 11.3 0.00 0.00 0.00 38 1005.1
20260504212242 20 278 6.4 12.9 0.00 0.00 0.00 36 1005.0
20260504211740 19 231 8.0 12.9 0.00 0.00 0.00 36 1005.1
20260504211236 19 243 11.3 16.1 0.00 0.00 0.00 36 1005.0
20260504210734 19 180 4.8 11.3 0.00 0.00 0.00 37 1005.1
20260504210231 19 227 12.9 16.1 0.00 0.00 0.00 36 1005.0
20260504205727 19 243 4.8 8.0 0.00 0.00 0.00 37 1004.8
20260504205225 19 220 11.3 14.5 0.00 0.00 0.00 35 1004.9
20260504204723 18 221 4.8 8.0 0.00 0.00 0.00 38 1004.6
20260504204222 19 212 6.4 16.1 0.00 0.00 0.00 38 1005.1
20260504203721 19 242 4.8 11.3 0.00 0.00 0.00 37 1004.9
20260504203218 19 179 4.8 9.7 0.00 0.00 0.00 37 1004.8
20260504202717 18 227 4.8 12.9 0.00 0.00 0.00 38 1004.9
20260504202215 18 224 3.2 8.0 0.00 0.00 0.00 37 1004.8
20260504201712 18 262 3.2 8.0 0.00 0.00 0.00 42 1004.9
20260504201209 18 193 8.0 11.3 0.00 0.00 0.00 41 1005.1
20260504200706 18 223 4.8 9.7 0.00 0.00 0.00 38 1005.0
20260504200202 18 318 3.2 11.3 0.00 0.00 0.00 40 1005.1
20260504195659 18 259 4.8 9.7 0.00 0.00 0.00 39 1004.9
20260504195155 19 234 4.8 9.7 0.00 0.00 0.00 40 1005.3
20260504194652 18 241 8.0 17.7 0.00 0.00 0.00 38 1005.2
20260504194147 18 215 9.7 17.7 0.00 0.00 0.00 39 1005.2
20260504193644 18 236 6.4 17.7 0.00 0.00 0.00 38 1005.2
20260504193142 19 282 8.0 11.3 0.00 0.00 0.00 38 1005.2
20260504192640 19 224 6.4 12.9 0.00 0.00 0.00 39 1005.0
20260504192138 18 302 3.2 9.7 0.00 0.00 0.00 39 1005.3
20260504191636 18 339 11.3 12.9 0.00 0.00 0.00 41 1005.4
20260504191132 18 288 6.4 12.9 0.00 0.00 0.00 41 1005.2
20260504190628 18 272 4.8 14.5 0.00 0.00 0.00 39 1005.2
20260504190125 17 276 1.6 9.7 0.00 0.00 0.00 41 1005.3
20260504185621 17 224 9.7 16.1 0.00 0.00 0.00 43 1005.5
20260504185118 17 74 4.8 8.0 0.00 0.00 0.00 41 1005.2
20260504184614 17 223 4.8 22.5 0.00 0.00 0.00 42 1005.4
20260504184109 17 211 4.8 8.0 0.00 0.00 0.00 43 1005.3
20260504183607 17 237 8.0 9.7 0.00 0.00 0.00 45 1005.4
20260504183104 16 288 3.2 4.8 0.00 0.00 0.00 43 1005.5
20260504182601 16 205 11.3 12.9 0.00 0.00 0.00 44 1005.7
20260504182059 16 281 3.2 8.0 0.00 0.00 0.00 47 1005.7
20260504181555 16 312 1.6 3.2 0.00 0.00 0.00 47 1005.8
20260504181054 16 210 1.6 4.8 0.00 0.00 0.00 47 1005.6
20260504180553 16 296 1.6 1.6 0.00 0.00 0.00 46 1005.6
20260504180051 16 202 3.2 4.8 0.00 0.00 0.00 44 1005.7
20260504175548 16 241 0.0 3.2 0.00 0.00 0.00 43 1005.7
20260504175044 16 251 4.8 11.3 0.00 0.00 0.00 42 1005.7
20260504174543 16 14 3.2 4.8 0.00 0.00 0.00 44 1005.2
20260504174039 16 280 6.4 8.0 0.00 0.00 0.00 42 1005.4
20260504173536 17 281 6.4 16.1 0.00 0.00 0.00 43 1005.8
20260504173033 16 313 6.4 9.7 0.00 0.00 0.00 42 1005.4
20260504172529 16 169 14.5 17.7 0.00 0.00 0.00 42 1005.7
20260504172026 16 257 8.0 14.5 0.00 0.00 0.00 40 1005.6
20260504171523 16 252 1.6 8.0 0.00 0.00 0.00 41 1005.6
20260504171020 16 254 6.4 14.5 0.00 0.00 0.00 41 1005.6
20260504170515 16 223 14.5 22.5 0.00 0.00 0.00 40 1005.5
20260504160436 16 235 12.9 17.7 0.00 0.00 0.00 43 1005.0
20260504150900 15 180 3.2 11.3 0.00 0.00 0.00 48 1005.6
20260504150356 15 208 8.0 20.9 0.00 0.00 0.00 49 1005.8
20260504141326 12 227 9.7 11.3 0.00 0.00 0.00 53 1006.4
20260504140823 12 214 8.0 17.7 0.00 0.00 0.00 56 1006.6
20260504140319 12 187 14.5 20.9 0.00 0.00 0.00 56 1006.4
20260504130747 11 212 9.7 12.9 0.00 0.00 0.00 63 1007.0
20260504130244 10 192 3.2 8.0 0.00 0.00 0.00 66 1007.2
20260504120207 8 227 4.8 8.0 0.00 0.00 0.00 71 1007.8
20260504110635 8 204 1.6 4.8 0.00 0.00 0.00 68 1007.8
20260504110131 7 212 6.4 9.7 0.00 0.00 0.00 68 1007.7
20260504100557 7 279 0.0 8.0 0.00 0.00 0.00 66 1007.9
20260504081950 6 209 1.6 4.8 0.00 0.00 0.00 59 1007.8
20260504081448 5 245 0.0 3.2 0.00 0.00 0.00 59 1007.8
20260504080943 5 253 0.0 0.0 0.00 0.00 0.00 63 1007.8
20260504080440 5 316 0.0 3.2 0.00 0.00 0.00 64 1007.9
20260504070408 2 285 0.0 1.6 0.00 0.00 0.00 90 1007.7
20260504050253 1 265 1.6 1.6 0.00 0.00 0.00 90 1007.6
20260504045751 2 297 1.6 1.6 0.00 0.00 0.00 91 1007.7
20260504045250 2 297 0.0 1.6 0.00 0.00 0.00 91 1007.5
20260504044748 2 279 0.0 0.0 0.00 0.00 0.00 90 1007.6
20260504044246 2 279 0.0 0.0 0.00 0.00 0.00 90 1007.6
20260504043743 2 269 0.0 0.0 0.00 0.00 0.00 90 1007.5
20260504043239 2 270 0.0 0.0 0.00 0.00 0.00 90 1007.4
20260504042737 2 293 0.0 0.0 0.00 0.00 0.00 90 1007.5
20260504042233 2 293 0.0 0.0 0.00 0.00 0.00 90 1007.6
20260504041730 2 263 0.0 0.0 0.00 0.00 0.00 90 1007.5
20260504041226 2 259 3.2 3.2 0.00 0.00 0.00 91 1007.6
20260504040722 2 305 0.0 0.0 0.00 0.00 0.00 90 1007.5
20260504040220 2 305 1.6 1.6 0.00 0.00 0.00 89 1007.3
20260504035716 2 304 1.6 1.6 0.00 0.20 0.20 88 1007.5
20260504035213 2 304 1.6 1.6 0.00 0.20 0.20 88 1007.4
20260504034710 2 304 0.0 0.0 0.00 0.20 0.20 88 1007.5
20260504034207 2 304 0.0 0.0 0.00 0.20 0.20 88 1007.5
20260504033705 2 304 0.0 0.0 0.00 0.20 0.20 88 1007.5
20260504033202 2 304 0.0 0.0 0.00 0.20 0.20 88 1007.2
20260504032659 3 304 0.0 0.0 0.00 0.20 0.20 88 1007.3
20260504032156 3 304 0.0 1.6 0.00 0.20 0.20 87 1007.4
20260504031653 3 304 0.0 0.0 0.00 0.20 0.20 87 1007.3
20260504031149 3 305 0.0 0.0 0.00 0.20 0.20 85 1007.1
20260504030646 3 304 0.0 0.0 0.00 0.20 0.20 85 1007.3
20260504030143 3 304 0.0 0.0 0.00 0.20 0.20 84 1007.4
20260504025640 3 304 0.0 0.0 0.00 0.20 0.20 83 1007.3
20260504025136 3 304 0.0 0.0 0.00 0.20 0.20 83 1007.3
20260504024634 3 304 0.0 0.0 0.00 0.20 0.20 82 1007.3
20260504024130 3 304 0.0 0.0 0.00 0.20 0.20 82 1007.3
20260504023627 3 305 0.0 0.0 0.00 0.20 0.20 80 1007.3
20260504023123 3 305 0.0 0.0 0.00 0.20 0.20 79 1007.4
20260504022619 3 304 0.0 0.0 0.00 0.20 0.20 79 1007.3
20260504022115 4 304 0.0 0.0 0.00 0.20 0.20 78 1007.4
20260504021614 4 305 0.0 0.0 0.00 0.20 0.20 76 1007.2
20260504021110 4 305 0.0 0.0 0.00 0.20 0.20 76 1007.3
20260504020607 5 305 0.0 0.0 0.00 0.20 0.20 75 1007.3
20260504020103 5 305 0.0 0.0 0.00 0.20 0.20 69 1007.3
20260504015600 5 305 0.0 0.0 0.00 0.20 0.20 68 1007.2
20260504015055 5 305 0.0 0.0 0.00 0.20 0.20 74 1007.3
20260504014552 5 284 0.0 1.6 0.00 0.20 0.20 72 1007.4
20260504014049 5 256 0.0 0.0 0.00 0.20 0.20 69 1007.3
20260504013547 6 253 1.6 1.6 0.00 0.20 0.20 68 1007.3
20260504013043 5 325 0.0 0.0 0.00 0.20 0.20 63 1007.3
20260504012541 6 325 1.6 1.6 0.00 0.20 0.20 64 1007.3
20260504012039 6 325 1.6 3.2 0.00 0.20 0.20 60 1007.3
20260504011535 6 326 1.6 1.6 0.00 0.20 0.20 60 1007.3
20260504011031 6 359 1.6 3.2 0.00 0.20 0.20 62 1007.3
20260504010527 5 0 1.6 3.2 0.00 0.20 0.20 62 1007.0
20260504010023 5 332 1.6 1.6 0.00 0.20 0.20 64 1007.2
20260504005520 5 325 1.6 1.6 0.00 0.20 0.20 63 1007.0
20260504005018 5 325 1.6 3.2 0.00 0.20 0.20 62 1007.0
20260504004516 5 333 1.6 3.2 0.00 0.20 0.20 63 1006.8
20260504004012 6 320 1.6 1.6 0.00 0.20 0.20 64 1006.8
20260504003508 6 303 1.6 1.6 0.00 0.20 0.20 63 1006.7
20260504003005 6 302 1.6 1.6 0.00 0.20 0.20 59 1006.7
20260504002502 6 303 1.6 1.6 0.00 0.20 0.20 60 1006.8
20260504001959 6 302 0.0 1.6 0.00 0.20 0.20 62 1006.6
20260504001457 6 302 1.6 1.6 0.00 0.20 0.20 61 1006.7
20260504000953 6 300 0.0 1.6 0.00 0.20 0.20 63 1006.5
20260504000450 6 301 1.6 1.6 0.00 0.20 0.20 61 1006.4
20260503235948 6 300 0.0 1.6 0.00 0.20 0.20 63 1006.4
20260503235445 6 299 0.0 1.6 0.00 0.20 0.20 63 1006.1
20260503234942 6 308 1.6 1.6 0.00 0.20 0.20 61 1006.3
20260503234440 7 318 1.6 3.2 0.00 0.20 0.20 57 1006.5
20260503233938 7 312 1.6 3.2 0.00 0.20 0.20 55 1006.4
20260503233434 7 328 1.6 3.2 0.00 0.20 0.20 56 1006.0
20260503232931 7 318 1.6 4.8 0.00 0.20 0.20 53 1006.0
20260503232428 7 323 1.6 4.8 0.00 0.20 0.20 53 1006.1
20260503231926 7 285 3.2 3.2 0.00 0.20 0.20 51 1006.1
20260503231423 8 332 3.2 4.8 0.00 0.20 0.20 49 1006.0
20260503230919 8 259 1.6 8.0 0.00 0.20 0.20 51 1006.1
20260503230416 8 326 3.2 4.8 0.00 0.20 0.20 50 1006.0
20260503225914 8 351 3.2 4.8 0.00 0.20 0.20 51 1005.9
20260503225409 8 315 1.6 8.0 0.00 0.20 0.20 52 1005.7
20260503224906 8 300 0.0 3.2 0.00 0.20 0.20 50 1005.8
20260503224403 8 253 4.8 8.0 0.00 0.20 0.20 49 1005.7
20260503223900 8 299 3.2 8.0 0.00 0.20 0.20 50 1005.7
20260503223358 9 289 4.8 4.8 0.00 0.20 0.20 49 1005.6
20260503222853 9 261 1.6 8.0 0.00 0.20 0.20 50 1005.6
20260503222352 9 18 6.4 8.0 0.00 0.20 0.20 49 1005.7
20260503221850 9 152 4.8 9.7 0.00 0.20 0.20 51 1005.5
20260503221348 9 295 3.2 8.0 0.00 0.20 0.20 47 1005.5
20260503220844 10 261 4.8 9.7 0.00 0.20 0.20 46 1005.4
20260503220341 10 181 6.4 12.9 0.00 0.20 0.20 48 1005.3
20260503215838 10 334 3.2 3.2 0.00 0.20 0.20 48 1005.3
20260503215335 10 308 3.2 4.8 0.00 0.20 0.20 50 1004.9